📊 Raw Sensor Data

Showing records 45451 to 45475 of 85,053 total

ID Distance (ft) Battery V Battery A Int Temp (°F) Int Humid (%) Ext Temp (°F) Solar V RSSI SNR Time Stamp
39615 15.4 4.02 -5 51 44 51 0.00 -73 8 05/03/2025 10:45 PM
39614 15.3 3.96 -5 52 44 53 0.00 -75 9 05/03/2025 10:30 PM
39613 15.3 3.96 -5 52 44 54 0.00 -77 8 05/03/2025 10:15 PM
39612 -- 3.97 -5 53 45 54 0.00 -73 8 05/03/2025 10:00 PM
39611 15.3 3.97 -5 53 45 54 0.10 -75 8 05/03/2025 09:45 PM
39610 15.3 4.03 -5 54 46 54 0.00 -76 9 05/03/2025 09:30 PM
39609 15.3 3.97 -5 54 47 55 0.00 -75 8 05/03/2025 09:15 PM
39608 15.2 3.97 -5 55 47 56 0.00 -74 8 05/03/2025 09:00 PM
39607 15.3 3.97 -5 56 49 57 0.00 -74 8 05/03/2025 08:45 PM
39606 15.3 4.03 -5 57 50 57 0.10 -73 8 05/03/2025 08:30 PM
39605 15.3 4.03 -5 59 52 58 0.70 -72 8 05/03/2025 08:15 PM
39604 15.3 3.97 -10 61 53 59 4.20 -73 8 05/03/2025 08:00 PM
39603 15.3 4.04 0 65 53 61 4.50 -72 8 05/03/2025 07:45 PM
39602 15.3 4.05 0 69 52 64 4.50 -74 8 05/03/2025 07:30 PM
39601 15.4 4.07 10 73 51 67 4.50 -75 8 05/03/2025 07:15 PM
39600 15.4 4.03 -7 76 50 70 4.50 -76 8 05/03/2025 07:00 PM
39599 15.4 4.06 32 77 50 72 4.50 -74 8 05/03/2025 06:45 PM
39598 15.4 4.02 0 79 49 73 5.10 -75 8 05/03/2025 06:30 PM
39597 15.4 4.02 0 80 48 73 5.10 -72 7 05/03/2025 06:15 PM
39596 15.4 4.03 0 81 48 74 5.10 -74 7 05/03/2025 06:00 PM
39595 -- 4.02 0 82 47 74 5.10 -72 9 05/03/2025 05:45 PM
39594 -- 4.02 0 83 46 76 5.10 -75 9 05/03/2025 05:30 PM
39593 -- 4.02 0 84 46 77 5.10 -72 9 05/03/2025 05:15 PM
39592 -- 4.02 0 85 45 77 5.10 -74 9 05/03/2025 05:00 PM
39591 -- 4.02 0 85 44 77 5.10 -72 9 05/03/2025 04:45 PM